Location: Lecco
(45.8566°N, 9.3977°E)
Time: 12:42:40
(UTC+02:00)

Courier 1B Rocket - Pass Details

Date: 31 August 2019
Orbit: 920 x 1202 km, 28.2° (Epoch: 15 September)

Event Time Altitude Azimuth Distance (km) Brightness Sun altitude
Rises 04:42:40 0° 246° (WSW) 3,786 - -19.5°
Reaches altitude 10° 04:46:38 10° 224° (SW) 2,894 - -18.9°
Maximum altitude 04:50:24 15° 192° (SSW) 2,587 - -18.4°
Exits shadow 04:50:37 15° 190° (S) 2,591 6.8 -18.4°
Drops below altitude 10° 04:54:16 10° 160° (SSE) 3,001 7.4 -17.8°
Sets 04:58:32 0° 139° (SE) 4,012 8.3 -17.2°
